{"data":{"norad_id":55335,"epoch":"2026-09-19T18:37:21.495936Z","epoch_age_seconds":159195,"freshness":"FRESH","line1":"1 55335U 23013E   26262.77594324 -.00000557  00000+0 -10715-4 0  9995","line2":"2 55335  43.0012 287.5500 0000757 280.7429  79.3337 15.27576439201353","mean_motion":15.27576439,"eccentricity":7.57e-5,"inclination_deg":43.0012,"raan_deg":287.55,"arg_perigee_deg":280.7429,"mean_anomaly_deg":79.3337,"bstar":-1.0715e-5,"rev_number":20135,"period_min":94.266968462977,"perigee_km":482.54036638078,"apogee_km":483.57915157008,"semimajor_km":6861.1967589754,"source":"CELESTRAK","updated_at":"2026-09-21T09:00:33.178452Z"}}